North Bend, OR

11:16 PM PDT on September 25, 2017 (GMT -0700)
North Bend Municipal

Weather History for KOTH - March, 2013

Change the Weather History Date:

Thursday, March 14, 2013

  Actual Average Record
Temperature  
Mean Temperature 54 °F 48 °F  
Max Temperature 63 °F 54 °F 78 °F (1926)
Min Temperature 45 °F 42 °F 23 °F (1930)
Degree Days  
Heating Degree Days 11 17  
Month to date heating degree days 238 247  
Since 1 July heating degree days 3276 3421  
Cooling Degree Days 0 0  
Month to date cooling degree days 0 0  
Year to date cooling degree days 0 0  
Growing Degree Days 3 (Base 50)    
Moisture  
Dew Point 47 °F    
Average Humidity 86    
Maximum Humidity 100    
Minimum Humidity 64    
Precipitation  
Precipitation 0.00 in 0.26 in 2.86 in (1967)
Month to date precipitation 1.68 3.74  
Year to date precipitation 8.45 21.52  
Sea Level Pressure  
Sea Level Pressure 30.19 in    
Wind  
Wind Speed 7 mph (SSW)    
Max Wind Speed 13 mph    
Max Gust Speed 21 mph    
Visibility 10 miles    
Events      
T = Trace of Precipitation, MM = Missing Value Source: NWS Daily Summary

Daily Weather History Graph

Daily Weather History Graph

Search for Another Location

Airport or City:

Trip Planner

Search our weather history database for the weather conditions in past years. The results will help you decide how hot, cold, wet, or windy it might be!

Date:

Astronomy

Mar. 14, 2013 Rise Set
Actual Time 7:30 AM PDT 7:22 PM PDT
Civil Twilight 7:01 AM PDT 7:51 PM PDT
Nautical Twilight 6:28 AM PDT 8:24 PM PDT
Astronomical Twilight 5:55 AM PDT 8:58 PM PDT
Moon 8:41 AM PDT (3/14) 10:51 PM PDT (3/14)
Length of Visible Light 12h 49m
Length of Day
11h 52m
Waxing Crescent, 9% of the Moon is Illuminated
Mar 14
Waxing Crescent
Mar 19
First Quarter
Mar 27
Full
Apr 2
Last Quarter
Apr 10
New

Hourly Weather History & Observations

Time (PDT) Temp. Windchill Dew Point Humidity Pressure Visibility Wind Dir Wind Speed Gust Speed Precip Events Conditions
12:15 AM 46.4 °F - 44.6 °F 93% 30.17 in 10.0 mi Calm Calm - N/A   Overcast
12:35 AM 46.4 °F - 44.6 °F 93% 30.16 in 10.0 mi Calm Calm - N/A   Overcast
12:55 AM 46.4 °F - 44.6 °F 93% 30.17 in 10.0 mi Calm Calm - N/A   Overcast
1:15 AM 46.4 °F - 44.6 °F 93% 30.16 in 10.0 mi Calm Calm - N/A   Overcast
1:35 AM 48.2 °F - 46.4 °F 93% 30.15 in 10.0 mi Calm Calm - N/A   Overcast
1:55 AM 46.4 °F 44.3 °F 44.6 °F 93% 30.14 in 10.0 mi SSW 4.6 mph - N/A   Overcast
2:15 AM 46.4 °F 45.2 °F 44.6 °F 93% 30.14 in 10.0 mi SSW 3.5 mph - N/A   Overcast
2:35 AM 46.4 °F 43.5 °F 46.4 °F 100% 30.15 in 10.0 mi WSW 5.8 mph - N/A   Overcast
2:55 AM 46.4 °F 45.2 °F 46.4 °F 100% 30.15 in 10.0 mi SSW 3.5 mph - N/A   Overcast
3:15 AM 46.4 °F - 46.4 °F 100% 30.14 in 10.0 mi Calm Calm - N/A   Overcast
3:35 AM 46.4 °F 45.2 °F 46.4 °F 100% 30.13 in 10.0 mi SSW 3.5 mph - N/A   Overcast
3:55 AM 46.4 °F 44.3 °F 46.4 °F 100% 30.13 in 10.0 mi SW 4.6 mph - N/A   Overcast
4:15 AM 46.4 °F 45.2 °F 46.4 °F 100% 30.12 in 9.0 mi SW 3.5 mph - N/A   Overcast
4:35 AM 46.4 °F 43.5 °F 46.4 °F 100% 30.12 in 10.0 mi WSW 5.8 mph - N/A   Overcast
4:55 AM 44.6 °F 41.4 °F 44.6 °F 100% 30.13 in 8.0 mi SW 5.8 mph - N/A   Overcast
5:15 AM 44.6 °F - 44.6 °F 100% 30.14 in 6.0 mi Calm Calm - N/A   Overcast
5:35 AM 46.4 °F 45.2 °F 46.4 °F 100% 30.15 in 7.0 mi South 3.5 mph - N/A   Overcast
5:55 AM 46.4 °F 45.2 °F 46.4 °F 100% 30.14 in 8.0 mi SSE 3.5 mph - N/A   Overcast
6:15 AM 46.4 °F 44.3 °F 46.4 °F 100% 30.15 in 10.0 mi SSE 4.6 mph - N/A   Overcast
6:35 AM 46.4 °F 43.5 °F 46.4 °F 100% 30.16 in 10.0 mi SSE 5.8 mph - N/A   Overcast
6:55 AM 46.4 °F 42.4 °F 46.4 °F 100% 30.15 in 10.0 mi SE 8.1 mph - N/A   Overcast
7:15 AM 46.4 °F 42.9 °F 46.4 °F 100% 30.14 in 10.0 mi SE 6.9 mph - N/A   Overcast
7:35 AM 46.4 °F 42.4 °F 46.4 °F 100% 30.14 in 10.0 mi SE 8.1 mph - N/A   Overcast
7:55 AM 46.4 °F 42.4 °F 46.4 °F 100% 30.16 in 10.0 mi SSE 8.1 mph - N/A   Overcast
8:15 AM 46.4 °F 42.4 °F 46.4 °F 100% 30.16 in 10.0 mi SE 8.1 mph - N/A   Overcast
8:35 AM 46.4 °F 41.9 °F 46.4 °F 100% 30.16 in 10.0 mi SE 9.2 mph - N/A   Overcast
8:55 AM 46.4 °F 41.9 °F 46.4 °F 100% 30.16 in 10.0 mi SE 9.2 mph - N/A   Overcast
9:15 AM 48.2 °F - 46.4 °F 93% 30.17 in 10.0 mi SSE 9.2 mph - N/A   Mostly Cloudy
9:35 AM 48.2 °F - 46.4 °F 93% 30.17 in 10.0 mi SSE 9.2 mph - N/A   Mostly Cloudy
9:55 AM 48.2 °F - 46.4 °F 93% 30.16 in 10.0 mi SE 9.2 mph - N/A   Mostly Cloudy
10:15 AM 50.0 °F - 46.4 °F 87% 30.19 in 10.0 mi South 8.1 mph - N/A   Mostly Cloudy
10:35 AM 50.0 °F - 46.4 °F 87% 30.19 in 10.0 mi SSW 8.1 mph - N/A   Overcast
10:55 AM 50.0 °F - 46.4 °F 87% 30.18 in 10.0 mi South 8.1 mph - N/A   Overcast
11:15 AM 50.0 °F - 46.4 °F 87% 30.21 in 10.0 mi SW 9.2 mph - N/A   Overcast
11:35 AM 51.8 °F - 46.4 °F 82% 30.21 in 10.0 mi SSW 6.9 mph - N/A   Overcast
11:55 AM 51.8 °F - 46.4 °F 82% 30.22 in 10.0 mi SW 10.4 mph 17.3 mph N/A   Overcast
12:15 PM 53.6 °F - 46.4 °F 77% 30.22 in 10.0 mi SSW 10.4 mph 16.1 mph N/A   Overcast
12:55 PM 55.4 °F - 46.4 °F 72% 30.21 in 10.0 mi SSW 12.7 mph 20.7 mph N/A   Mostly Cloudy
1:15 PM 55.4 °F - 46.4 °F 72% 30.21 in 10.0 mi South 12.7 mph 18.4 mph N/A   Overcast
1:35 PM 57.2 °F - 46.4 °F 67% 30.21 in 10.0 mi SSW 10.4 mph 17.3 mph N/A   Overcast
1:55 PM 57.2 °F - 48.2 °F 72% 30.20 in 10.0 mi South 8.1 mph - N/A   Mostly Cloudy
2:15 PM 59.0 °F - 46.4 °F 63% 30.19 in 10.0 mi South 9.2 mph 16.1 mph N/A   Overcast
2:35 PM 59.0 °F - 46.4 °F 63% 30.18 in 10.0 mi SSW 11.5 mph 16.1 mph N/A   Overcast
2:55 PM 60.8 °F - 48.2 °F 63% 30.17 in 10.0 mi SSW 10.4 mph 20.7 mph N/A   Mostly Cloudy
3:15 PM 62.6 °F - 48.2 °F 59% 30.17 in 10.0 mi South 9.2 mph - N/A   Partly Cloudy
3:35 PM 59.0 °F - 48.2 °F 67% 30.19 in 10.0 mi WSW 13.8 mph 18.4 mph N/A   Mostly Cloudy
3:55 PM 55.4 °F - 48.2 °F 77% 30.20 in 10.0 mi WSW 12.7 mph - N/A   Overcast
4:15 PM 57.2 °F - 48.2 °F 72% 30.21 in 10.0 mi WSW 12.7 mph - N/A   Overcast
4:35 PM 57.2 °F - 48.2 °F 72% 30.21 in 10.0 mi SW 10.4 mph - N/A   Overcast
4:55 PM 55.4 °F - 46.4 °F 72% 30.22 in 10.0 mi WSW 8.1 mph - N/A   Overcast
5:15 PM 55.4 °F - 46.4 °F 72% 30.22 in 10.0 mi South 6.9 mph - N/A   Overcast
5:35 PM 55.4 °F - 46.4 °F 72% 30.21 in 10.0 mi South 8.1 mph - N/A   Overcast
5:55 PM 55.4 °F - 48.2 °F 77% 30.21 in 10.0 mi SSW 3.5 mph - N/A   Overcast
6:15 PM 55.4 °F - 48.2 °F 77% 30.22 in 10.0 mi SW 4.6 mph - N/A   Overcast
6:35 PM 55.4 °F - 48.2 °F 77% 30.22 in 10.0 mi SSW 4.6 mph - N/A   Overcast
6:55 PM 55.4 °F - 48.2 °F 77% 30.22 in 10.0 mi SSW 3.5 mph - N/A   Overcast
7:15 PM 55.4 °F - 48.2 °F 77% 30.22 in 10.0 mi SSW 8.1 mph - N/A   Overcast
7:35 PM 53.6 °F - 48.2 °F 82% 30.22 in 10.0 mi SSW 8.1 mph - N/A   Overcast
7:55 PM 53.6 °F - 48.2 °F 82% 30.22 in 10.0 mi SSW 8.1 mph - N/A   Overcast
8:15 PM 53.6 °F - 48.2 °F 82% 30.22 in 10.0 mi SSW 4.6 mph - N/A   Overcast
8:35 PM 53.6 °F - 48.2 °F 82% 30.23 in 10.0 mi SW 5.8 mph - N/A   Overcast
8:55 PM 53.6 °F - 48.2 °F 82% 30.23 in 10.0 mi SSW 4.6 mph - N/A   Overcast
9:15 PM 53.6 °F - 48.2 °F 82% 30.23 in 10.0 mi SSW 4.6 mph - N/A   Overcast
9:35 PM 53.6 °F - 48.2 °F 82% 30.24 in 10.0 mi WSW 4.6 mph - N/A   Overcast
9:55 PM 53.6 °F - 48.2 °F 82% 30.25 in 10.0 mi WSW 6.9 mph - N/A   Overcast
10:15 PM 53.6 °F - 48.2 °F 82% 30.25 in 10.0 mi WSW 8.1 mph - N/A   Overcast
10:35 PM 53.6 °F - 48.2 °F 82% 30.26 in 10.0 mi WSW 4.6 mph - N/A   Overcast
10:55 PM 53.6 °F - 48.2 °F 82% 30.25 in 10.0 mi Calm Calm - N/A   Overcast
11:15 PM 53.6 °F - 48.2 °F 82% 30.26 in 10.0 mi Calm Calm - N/A   Overcast
11:35 PM 53.6 °F - 48.2 °F 82% 30.26 in 10.0 mi South 4.6 mph - N/A   Overcast
11:55 PM 53.6 °F - 48.2 °F 82% 30.26 in 10.0 mi SW 6.9 mph - N/A   Overcast